Location: ČR
(50.0000°N, 15.0000°E)
Time: 15:24:45
(UTC+00:00)

Explorer 7 - Pass Details

Date: 24 October 2021
Orbit: 483 x 675 km, 50.3° (Epoch: 27 November)

Event Time Altitude Azimuth Distance (km) Brightness Sun altitude
Rises 01:48:07 0° 286° (WNW) 2,857 - -36.4°
Reaches altitude 10° 01:50:29 10° 278° (W) 1,983 - -36.1°
Maximum altitude 01:54:40 36° 211° (SSW) 1,010 - -35.5°
Drops below altitude 10° 01:59:02 10° 146° (SE) 2,065 - -34.9°
Exits shadow 02:01:18 - 138° (SE) 2,902 10.7 -34.5°
Sets 02:01:33 0° 138° (SE) 2,993 10.8 -34.5°
